Location: Gleizolles
(44.4833°N, 6.7667°E)
Time: 03:42:59
(UTC+00:00)

SL-4 R/B - Pass Details

Date: 09 April 2020
Orbit: 428 x 666 km, 51.6° (Epoch: 02 June)

Event Time Altitude Azimuth Distance (km) Brightness Sun altitude
Rises 19:01:38 0° 261° (W) 2,400 6.5 -9.5°
Reaches altitude 10° 19:03:50 10° 270° (W) 1,525 5.5 -9.9°
Maximum altitude 19:07:03 38° 340° (NNW) 673 2.9 -10.4°
Drops below altitude 10° 19:10:17 10° 51° (NE) 1,541 4.0 -11.0°
Enters shadow 19:11:34 - 57° (ENE) 2,047 4.6 -11.2°
